Weather History for KPQN - April, 2014

Change the Weather History Date:

Friday, April 25, 2014

  Actual Average Record
Temperature  
Mean Temperature 53 °F -  
Max Temperature 69 °F 59 °F 78 °F (2012)
Min Temperature 37 °F 38 °F 19 °F (2013)
Degree Days  
Heating Degree Days 12    
Growing Degree Days 3 (Base 50)    
Moisture  
Dew Point 33 °F    
Average Humidity 49    
Maximum Humidity 93    
Minimum Humidity 18    
Precipitation  
Precipitation 0.00 in - - ()
Sea Level Pressure  
Sea Level Pressure 29.79 in    
Wind  
Wind Speed 6 mph (NW)    
Max Wind Speed 16 mph    
Max Gust Speed 21 mph    
Visibility 10 miles    
Events      
Averages and records for this station are not official NWS values.
T = Trace of Precipitation, MM = Missing Value Source: NWS Daily Summary

Daily Weather History Graph

Daily Weather History Graph

Search for Another Location

Airport or City:

Trip Planner

Search our weather history database for the weather conditions in past years. The results will help you decide how hot, cold, wet, or windy it might be!

Date:

Astronomy

Apr. 25, 2014 Rise Set
Actual Time 6:25 AM CDT 8:21 PM CDT
Civil Twilight 5:54 AM CDT 8:52 PM CDT
Nautical Twilight 5:16 AM CDT 9:30 PM CDT
Astronomical Twilight 4:35 AM CDT 10:12 PM CDT
Moon 4:23 AM CDT (4/25) 4:37 PM CDT (4/25)
Length of Visible Light 14h 57m
Length of Day
13h 55m
Waning Crescent, 15% of the Moon is Illuminated
Apr 25
Waning Crescent
Apr 29
New
May 6
First Quarter
May 14
Full
May 21
Last Quarter

Hourly Weather History & Observations

Time (CDT) Temp. Windchill Dew Point Humidity Pressure Visibility Wind Dir Wind Speed Gust Speed Precip Events Conditions
12:13 AM 42.8 °F 39.3 °F 39.2 °F 87% 29.75 in 10.0 mi SSW 5.8 mph - N/A   Clear
12:33 AM 42.8 °F 40.1 °F 39.2 °F 87% 29.75 in 10.0 mi SSW 4.6 mph - N/A   Clear
12:53 AM 41.0 °F 37.1 °F 37.4 °F 87% 29.76 in 10.0 mi SW 5.8 mph - N/A   Clear
1:13 AM 39.2 °F 37.0 °F 37.4 °F 93% 29.76 in 10.0 mi SW 3.5 mph - N/A   Clear
1:33 AM 39.2 °F 35.9 °F 35.6 °F 87% 29.76 in 10.0 mi WSW 4.6 mph - N/A   Clear
1:53 AM 39.2 °F 34.2 °F 37.4 °F 93% 29.75 in 10.0 mi WSW 6.9 mph - N/A   Clear
2:13 AM 39.2 °F 35.0 °F 37.4 °F 93% 29.75 in 10.0 mi SW 5.8 mph - N/A   Clear
2:33 AM 37.4 °F 33.8 °F 35.6 °F 93% 29.75 in 10.0 mi WSW 4.6 mph - N/A   Clear
2:53 AM 39.2 °F 37.0 °F 35.6 °F 87% 29.75 in 10.0 mi WSW 3.5 mph - N/A   Clear
3:13 AM 37.4 °F 34.9 °F 35.6 °F 93% 29.75 in 10.0 mi WSW 3.5 mph - N/A   Clear
3:33 AM 37.4 °F 34.9 °F 35.6 °F 93% 29.75 in 10.0 mi West 3.5 mph - N/A   Clear
3:53 AM 39.2 °F 35.9 °F 32.0 °F 75% 29.76 in 10.0 mi West 4.6 mph - N/A   Scattered Clouds
4:13 AM 37.4 °F 33.8 °F 32.0 °F 81% 29.76 in 10.0 mi WNW 4.6 mph - N/A   Mostly Cloudy
4:33 AM 39.2 °F 35.0 °F 32.0 °F 75% 29.76 in 10.0 mi WNW 5.8 mph - N/A   Mostly Cloudy
4:53 AM 42.8 °F 38.0 °F 30.2 °F 61% 29.78 in 10.0 mi WNW 8.1 mph - N/A   Mostly Cloudy
5:13 AM 41.0 °F 35.8 °F 30.2 °F 65% 29.79 in 10.0 mi NW 8.1 mph - N/A   Mostly Cloudy
5:33 AM 42.8 °F 38.6 °F 30.2 °F 61% 29.79 in 10.0 mi NW 6.9 mph - N/A   Mostly Cloudy
5:53 AM 42.8 °F 37.5 °F 30.2 °F 61% 29.79 in 10.0 mi NW 9.2 mph - N/A   Mostly Cloudy
6:13 AM 44.6 °F 39.2 °F 33.8 °F 66% 29.78 in 10.0 mi NW 10.4 mph - N/A   Mostly Cloudy
6:33 AM 44.6 °F 40.7 °F 35.6 °F 71% 29.79 in 10.0 mi WNW 6.9 mph - N/A   Mostly Cloudy
6:53 AM 46.4 °F 42.9 °F 35.6 °F 66% 29.79 in 10.0 mi WNW 6.9 mph - N/A   Mostly Cloudy
7:13 AM 46.4 °F 44.3 °F 37.4 °F 71% 29.79 in 10.0 mi WNW 4.6 mph - N/A   Scattered Clouds
7:33 AM 48.2 °F - 37.4 °F 66% 29.79 in 10.0 mi WNW 6.9 mph - N/A   Mostly Cloudy
7:53 AM 51.8 °F - 37.4 °F 58% 29.80 in 10.0 mi NW 9.2 mph - N/A   Mostly Cloudy
8:13 AM 50.0 °F - 39.2 °F 66% 29.81 in 10.0 mi WNW 6.9 mph - N/A   Overcast
8:33 AM 50.0 °F - 39.2 °F 66% 29.81 in 10.0 mi NW 6.9 mph - N/A   Mostly Cloudy
8:53 AM 51.8 °F - 37.4 °F 58% 29.81 in 10.0 mi NW 6.9 mph - N/A   Scattered Clouds
9:13 AM 53.6 °F - 37.4 °F 54% 29.81 in 10.0 mi NW 5.8 mph - N/A   Scattered Clouds
9:34 AM 53.6 °F - 37.4 °F 54% 29.82 in 10.0 mi NNW 3.5 mph - N/A   Mostly Cloudy
9:53 AM 55.4 °F - 35.6 °F 47% 29.81 in 10.0 mi WNW 3.5 mph - N/A   Scattered Clouds
10:13 AM 57.2 °F - 35.6 °F 44% 29.81 in 10.0 mi Calm Calm - N/A   Mostly Cloudy
10:34 AM 60.8 °F - 30.2 °F 31% 29.82 in 10.0 mi NW 6.9 mph - N/A   Scattered Clouds
10:53 AM 60.8 °F - 35.6 °F 39% 29.82 in 10.0 mi WNW 6.9 mph - N/A   Scattered Clouds
11:13 AM 60.8 °F - 30.2 °F 31% 29.82 in 10.0 mi NW 5.8 mph - N/A   Clear
11:33 AM 62.6 °F - 30.2 °F 30% 29.82 in 10.0 mi NNW 10.4 mph - N/A   Clear
11:53 AM 64.4 °F - 30.2 °F 28% 29.82 in 10.0 mi WNW 11.5 mph 17.3 mph N/A   Clear
12:13 PM 64.4 °F - 26.6 °F 24% 29.82 in 10.0 mi NW 11.5 mph 18.4 mph N/A   Clear
12:33 PM 64.4 °F - 28.4 °F 26% 29.82 in 10.0 mi NW 8.1 mph - N/A   Clear
12:53 PM 64.4 °F - 30.2 °F 28% 29.82 in 10.0 mi WNW 9.2 mph 19.6 mph N/A   Clear
1:13 PM 64.4 °F - 28.4 °F 26% 29.81 in 10.0 mi NNW 9.2 mph - N/A   Scattered Clouds
1:33 PM 66.2 °F - 30.2 °F 26% 29.81 in 10.0 mi WNW 9.2 mph - N/A   Scattered Clouds
1:53 PM 66.2 °F - 28.4 °F 24% 29.80 in 10.0 mi NW 11.5 mph 20.7 mph N/A   Scattered Clouds
2:13 PM 66.2 °F - 28.4 °F 24% 29.80 in 10.0 mi NW 16.1 mph - N/A   Scattered Clouds
2:33 PM 66.2 °F - 28.4 °F 24% 29.79 in 10.0 mi NNW 12.7 mph 18.4 mph N/A   Clear
2:53 PM 68.0 °F - 28.4 °F 23% 29.79 in 10.0 mi WNW 9.2 mph 17.3 mph N/A   Clear
3:13 PM 69.8 °F - 28.4 °F 21% 29.79 in 10.0 mi NW 12.7 mph - N/A   Clear
3:33 PM 69.8 °F - 28.4 °F 21% 29.79 in 10.0 mi North 11.5 mph 16.1 mph N/A   Clear
3:53 PM 68.0 °F - 26.6 °F 21% 29.79 in 10.0 mi NW 8.1 mph 16.1 mph N/A   Clear
4:13 PM 69.8 °F - 26.6 °F 20% 29.78 in 10.0 mi NW 10.4 mph - N/A   Clear
4:33 PM 69.8 °F - 24.8 °F 18% 29.78 in 10.0 mi NNW 6.9 mph - N/A   Clear
4:53 PM 69.8 °F - 26.6 °F 20% 29.77 in 10.0 mi WNW 8.1 mph - N/A   Clear
5:13 PM 69.8 °F - 26.6 °F 20% 29.77 in 10.0 mi NNW 9.2 mph - N/A   Clear
5:33 PM 69.8 °F - 24.8 °F 18% 29.77 in 10.0 mi NNW 6.9 mph - N/A   Clear
5:53 PM 69.8 °F - 24.8 °F 18% 29.77 in 10.0 mi Calm Calm - N/A   Clear
6:14 PM 69.8 °F - 24.8 °F 18% 29.77 in 10.0 mi NNW 5.8 mph - N/A   Clear
6:33 PM 69.8 °F - 26.6 °F 20% 29.78 in 10.0 mi Calm Calm - N/A   Clear
6:53 PM 69.8 °F - 24.8 °F 18% 29.78 in 10.0 mi NNW 3.5 mph - N/A   Clear
7:14 PM 69.8 °F - 24.8 °F 18% 29.78 in 10.0 mi Calm Calm - N/A   Clear
7:33 PM 69.8 °F - 24.8 °F 18% 29.78 in 10.0 mi Calm Calm - N/A   Clear
7:53 PM 66.2 °F - 28.4 °F 24% 29.78 in 10.0 mi Calm Calm - N/A   Clear
8:14 PM 64.4 °F - 30.2 °F 28% 29.78 in 10.0 mi Calm Calm - N/A   Clear
8:33 PM 64.4 °F - 30.2 °F 28% 29.79 in 10.0 mi Calm Calm - N/A   Clear
8:53 PM 60.8 °F - 33.8 °F 36% 29.80 in 10.0 mi ENE 4.6 mph - N/A   Clear
9:13 PM 57.2 °F - 35.6 °F 44% 29.81 in 10.0 mi ENE 5.8 mph - N/A   Clear
9:33 PM 57.2 °F - 33.8 °F 41% 29.83 in 10.0 mi ENE 4.6 mph - N/A   Clear
9:53 PM 55.4 °F - 39.2 °F 54% 29.84 in 10.0 mi ENE 10.4 mph - N/A   Clear
10:13 PM 55.4 °F - 41.0 °F 58% 29.85 in 10.0 mi ENE 9.2 mph - N/A   Clear
10:33 PM 53.6 °F - 41.0 °F 62% 29.86 in 10.0 mi ENE 8.1 mph - N/A   Clear
10:53 PM 53.6 °F - 39.2 °F 58% 29.86 in 10.0 mi East 10.4 mph - N/A   Clear
11:13 PM 51.8 °F - 39.2 °F 62% 29.86 in 10.0 mi East 9.2 mph - N/A   Clear
11:53 PM 51.8 °F - 39.2 °F 62% 29.85 in 10.0 mi East 9.2 mph - N/A   Clear